SCP
0 0 -0 0 -0 -0 0 0 0 0 0 0 0 0 0 0 0 0 0 0 0 0 0 0 0 0 0 0 0 0 0 0 0 0 0 0 0 0 0 0 0 0 0 0
0 0 0 -0 0 -0 0 0 0 0 0 0 0 0 0 0 0 0 0 0 0 0 0 0 0 0 0 0 0 0 0 0 0 0 0 0 0 0 0 0 0 0 0 0
0 0 0 0 0 0 0 0 0 0 0 0 0 0 0 0 0 0 0 0 0 0 0 0 0 0 0 0 0 0 0 0 0 0 0 0 0 0 0 0 0 0 0 0
0 0 0 0 0 0 0 0 0 0 0 0 0 0 0 0 0 0 0 0 0 0 0 0 0 0 0 0 0 0 0 0 0 0 0 0 0 0 0 0 0 0 0 0
0 0 0 0 0 0 0 0 0 0 0 0 0 0 0 0 0 0 0 0 0 0 0 0 0 0 0 0 0 0 0 0 0 0 0 0 0 0 -0 0 0 0 0 -0
0 0 0 0 0 0 0 0 0 0 0 0 0 0 0 0 0 0 0 0 0 0 0 0 0 0 0 0 0 0 0 0 0 0 0 0 0 0 0 0 -0 0 0 0
0 0 0 0 0 0 0 0 0 0 0 0 0 0 0 0 0 0 0 0 0 0 0 0 0 0 0 0 0 0 0 0 0 0 0 0 0 0 0 0 0 0 0 0
0 0 0 0 0 0 0 0 0 0 0 0 0 0 0 0 0 0 0 0 0 0 0 0 0 0 0 0 0 0 0 0 0 0 0 0 0 0 0 0 0 0 0 0
0 0 0 0 0 0 0 0 0 0 0 0 0 0 0 0 0 0 0 0 0 0 0 0 0 0 0 0 0 0 0 0 0 0 0 0 0 0 0 0 0 0 0 0
0 0 0 0 0 0 0 0 0 0 0 0 0 0 0 0 0 0 0 0 0 0 0 0 0 0 0 0 0 0 0 0 0 0 0 0 0 0 0 0 0 0 0 0
0 0 0 0 0 0 0 0 0 0 0 0 0 0 0 0 0 0 0 0 0 0 0 0 0 0 0 0 0 0 0 0 0 0 0 -0 0 0 0 0 0 -0 -0 -0
0 0 0 0 0 0 0 0 0 0 0 0 0 0 0 0 0 0 0 0 0 0 0 0 0 0 0 0 0 0 0 0 0 0 0 0 0 0 0 0 -0 0 0 0
0 0 0 0 0 0 0 0 0 0 0 0 0 0 0 0 0 0 0 0 -0 0 0 0 0 0 0 0 0 0 0 0 0 0 0 0 -0 0 0 0 0 0 0 0
0 0 0 0 0 0 0 0 0 0 0 0 0 0 0 0 0 0 -0 -0 0 0 0 0 0 0 0 0 0 0 0 0 0 -0 -0 -0 0 -0 -0 -0 0 0 0 0
0 0 0 0 0 0 0 0 0 0 0 0 0 0 0 -0 0 0 -0 -0 0 0 0 0 0 0 0 0 0 0 0 0 -0 -0 -0 -0 0 0 -0 0 0 0 0 0
0 0 0 0 0 0 0 0 0 0 0 0 0 0 0 0 0 0 0 0 0 0 0 0 0 0 0 0 -0 0 0 0 -0 0 -0 0 0 0 -0 0 0 -0 -0 0
0 0 0 0 0 0 0 0 0 0 0 0 0 0 0 0 0 0 0 0 0 0 0 0 0 0 0 0 -0 -0 -0 -0 -0 -0 -0 -0 -0 0 0 0 0 -0 0 0
0 0 0 0 0 0 0 0 0 0 0 0 0 0 0 0 0 0 -0 0 0 0 0 0 0 0 0 -0 0 0 0 -0 -0 -0 -0 -0 -0 0 0 0 -0 -0 -0 0
0 0 0 0 0 0 0 0 0 0 0 0 0 0 0 0 -0 0 0 0 0 0 0 0 0 0 0 -0 0 -0 -0 -0 -0 -0 -0 -0 -0 0 -0 -0 -0 -0 -0 -0
0 0 0 0 0 0 0 0 0 0 0 0 0 0 0 0 0 -0 0 0 0 0 -0 0 0 0 0 -0 0 0 -0 -0 -0 -0 -0 -0 0 -0 0 -0 -0 -0 -0 0
0 0 0 0 0 0 0 0 0 0 0 0 0 0 0 0 -0 0 0 0 0 0 0 0 0 0 0 0 0 0 0 0 0 -0 -0 -0 0 0 -0 -0 -0 0 -0 -0
0 0 0 0 0 0 0 0 0 0 0 0 0 0 0 0 0 0 0 0 0 0 -0 0 0 0 0 0 0 0 0 0 0 -0 -0 0 0 0 -0 0 -0 0 0 -0
0 0 0 0 0 0 0 0 0 0 0 -0 0 0 0 0 0 0 0 0 0 0 -0 0 0 0 0 0 0 -0 -0 0 -0 -0 -0 0 0 0 -0 0 -0 0 0 0
0 0 0 0 0 0 0 0 0 0 -0 0 0 0 0 0 0 0 0 0 0 -0 -0 0 0 0 0 0 -0 -0 -0 0 -0 -0 -0 -0 0 0 0 0 0 0 0 0
0 0 0 0 0 0 0 -0 0 0 -0 -0 0 0 0 0 0 0 0 0 0 0 0 0 -0 0 0 0 -0 -0 -0 -0 0 -0 -0 0 0 0 0 0 0 0 0 0
0 0 0 -0 -0 -0 -0 -0 -0 0 0 0 0 0 0 0 0 0 0 0 0 0 0 -0 -0 -0 0 0 0 -0 -0 -0 -0 -0 0 0 0 0 -0 0 0 0 0 0
0 0 0 -0 0 0 0 -0 0 0 0 0 0 0 0 0 0 0 0 0 0 0 0 0 -0 -0 0 -0 0 -0 0 0 0 0 0 -0 0 -0 0 -0 -0 0 0 0
Wind_Speed_500mb
48 51 48 47 54 65 64 27 7 20 13 5 3 4 16 22 13 26 8 1 3 6 3 4 5 7 6 14 11 7 3 7 5 15 14 17 8 6 10 5 5 6 4 11
46 50 45 42 43 58 61 34 13 23 5 6 6 10 14 23 25 18 11 10 9 5 3 4 7 3 14 11 10 13 12 2 5 16 10 10 5 5 5 3 3 8 3 10
41 47 43 39 33 40 44 18 8 12 18 13 5 7 6 18 20 18 12 7 9 8 4 5 6 3 4 15 4 14 19 7 12 11 13 9 11 11 13 11 7 6 16 25
39 42 39 35 31 32 25 14 3 6 8 6 12 5 5 22 14 16 24 5 16 10 7 5 6 3 8 10 7 7 7 10 11 13 18 17 18 23 21 16 28 15 19 21
38 37 37 33 31 27 13 10 9 10 17 22 7 4 4 16 10 4 11 10 21 14 10 12 10 8 7 11 2 4 3 5 3 9 20 15 17 11 17 14 11 19 25 23
33 33 33 31 29 24 9 7 5 6 11 10 9 5 4 13 15 13 24 28 23 26 28 33 32 27 19 15 13 8 5 7 3 9 8 16 7 1 4 8 11 9 10 7
29 29 29 29 27 20 14 7 4 2 8 5 12 15 29 29 12 19 28 40 36 30 19 23 26 23 28 19 14 16 10 7 5 7 10 5 5 9 11 20 23 8 10 13
28 27 26 26 23 17 12 5 4 5 8 10 22 12 11 22 30 26 32 52 31 18 7 3 8 5 3 1 8 13 11 9 2 3 3 12 8 7 8 14 26 7 11 23
28 27 25 24 21 15 10 5 7 10 6 6 6 16 14 7 5 9 17 45 26 5 4 4 2 5 6 4 5 12 10 2 7 4 2 9 7 6 23 10 15 5 13 18
28 26 24 23 21 15 11 8 8 11 10 21 9 6 6 7 9 6 15 21 18 15 4 4 1 4 5 2 4 2 3 3 8 6 6 14 4 13 18 2 9 32 33 43
25 24 21 22 21 15 14 11 11 13 13 33 41 37 25 15 10 4 12 16 6 7 5 0 1 3 3 4 2 4 7 4 4 4 5 13 5 3 2 7 32 42 46 53
27 25 22 22 22 16 14 16 15 17 26 36 61 67 60 58 44 19 9 10 12 7 1 3 4 4 5 4 3 5 4 9 6 13 10 4 1 14 28 25 38 45 55 66
20 22 22 22 20 18 19 17 15 18 22 43 24 19 4 14 13 18 17 12 7 5 5 4 2 4 6 1 6 3 0 4 3 7 4 9 41 7 31 43 50 63 64 72
20 21 22 24 22 19 23 22 18 21 16 9 15 6 14 19 22 23 30 40 12 24 17 3 3 4 10 4 5 5 7 3 1 10 12 35 7 49 64 67 70 71 77 78
21 19 21 23 22 18 23 21 22 24 15 9 26 54 14 35 34 21 20 33 44 30 6 1 5 6 1 3 2 5 6 6 5 7 8 10 40 62 60 62 65 72 75 80
19 19 21 21 19 18 15 10 10 9 17 9 7 16 9 4 22 28 27 31 29 16 4 6 8 7 2 1 4 3 8 4 8 10 28 36 46 46 48 62 67 71 72 79
18 19 22 23 18 22 19 9 7 8 4 6 10 10 9 3 10 4 25 33 21 10 5 6 6 6 3 2 5 7 6 11 16 11 26 24 35 54 62 60 64 65 68 73
20 22 23 24 19 22 28 30 26 22 6 8 5 6 11 6 11 10 17 12 14 10 6 5 7 4 3 6 6 8 6 16 10 23 30 37 50 58 56 59 64 68 73 81
29 30 24 17 16 15 18 16 15 17 16 6 7 4 4 14 8 13 15 13 5 8 5 5 5 3 7 9 8 4 5 13 23 28 32 44 48 50 54 59 67 67 73 83
35 28 12 9 8 12 7 1 5 11 11 11 7 8 5 6 9 10 5 10 5 5 6 5 5 5 5 10 6 3 7 14 18 28 39 46 52 56 60 61 61 63 71 77
37 15 11 11 14 16 7 7 9 9 7 11 13 24 8 6 5 2 11 5 6 4 3 3 2 5 6 9 5 3 5 13 19 19 24 33 42 51 57 60 59 64 70 75
20 15 18 16 10 8 7 6 8 8 7 10 9 15 22 10 14 10 9 4 4 4 11 2 4 2 6 11 4 8 18 21 23 19 25 29 35 45 52 54 58 63 65 76
26 8 10 10 10 9 10 9 7 6 9 9 11 6 12 12 20 13 0 1 2 14 2 5 2 8 15 6 3 14 18 19 21 22 21 27 32 42 49 55 52 59 64 72
11 12 9 8 9 9 9 6 3 8 3 14 22 8 16 15 8 3 3 4 6 5 5 6 5 17 9 3 12 17 17 19 21 26 24 29 41 48 50 47 46 55 64 70
10 10 9 14 19 12 11 22 20 25 16 15 14 13 8 1 3 2 4 4 5 5 4 5 17 18 4 6 14 18 18 20 22 26 31 36 41 51 54 48 44 48 58 67
9 11 8 16 7 14 25 25 25 23 12 6 3 4 2 2 1 3 7 6 7 6 5 15 23 14 4 8 16 20 24 28 32 33 35 36 40 53 53 50 46 44 53 61
9 11 24 28 11 11 14 19 19 13 1 4 9 10 7 2 2 3 6 8 6 12 23 26 16 8 17 25 24 20 21 24 27 35 36 35 37 49 57 61 57 51 50 52
Wind_Direction_500mb
339 342 343 344 344 348 355 359 357 354 170 37 11 20 323 309 321 340 296 203 124 169 186 248 248 241 230 230 151 115 44 132 261 251 290 275 200 221 161 250 292 273 286 273
334 336 345 348 355 356 358 345 318 13 143 75 351 329 329 331 342 326 347 13 2 2 163 263 217 306 320 150 145 166 180 128 340 336 351 353 13 180 154 85 337 236 204 269
328 334 345 349 1 358 359 359 353 342 48 72 18 8 320 314 326 322 350 326 7 356 269 221 266 262 358 353 181 153 136 142 173 205 226 203 282 261 243 172 214 241 230 273
319 329 340 348 358 359 3 9 354 7 317 325 331 278 276 292 306 336 335 8 6 333 287 284 239 18 344 358 70 102 117 200 196 239 250 250 265 277 286 217 237 227 262 271
309 320 329 344 350 6 9 1 354 338 295 295 314 303 318 285 314 310 297 331 330 298 248 229 245 184 189 234 9 83 34 250 225 270 264 267 283 299 309 19 324 250 257 274
300 309 321 332 340 357 12 336 279 290 288 308 300 262 265 314 323 283 247 306 309 297 269 259 239 227 218 217 180 173 178 153 113 269 310 306 302 104 289 270 248 260 254 253
293 298 309 320 329 341 346 325 320 289 283 306 288 308 302 293 301 279 284 282 281 263 269 282 270 260 244 227 233 178 151 133 151 275 347 258 237 187 255 292 297 268 302 321
298 294 300 306 316 325 328 318 233 235 284 270 288 310 338 321 299 286 267 282 310 313 299 354 339 333 58 159 210 188 182 140 153 202 211 282 231 232 281 311 297 167 314 315
292 292 288 292 302 307 299 271 246 252 290 255 276 309 315 293 284 299 287 317 340 323 79 70 289 249 188 289 94 55 102 323 135 143 215 253 234 244 323 324 279 105 317 295
289 287 279 279 289 291 273 280 289 252 250 280 275 238 259 261 278 265 297 325 324 4 43 48 184 271 291 132 164 41 335 319 169 169 230 280 225 305 324 237 258 326 326 309
284 288 276 270 276 278 258 275 296 283 253 276 268 266 240 224 216 250 312 328 4 347 40 267 319 313 340 23 211 213 177 159 208 172 218 274 42 13 146 262 327 320 312 304
281 278 271 260 265 255 239 270 292 307 259 268 285 278 258 258 269 253 259 291 314 271 46 338 341 326 16 137 270 47 163 201 200 181 225 215 189 283 298 318 312 305 306 303
275 270 258 252 256 243 237 262 288 304 287 301 282 286 245 243 267 277 230 264 234 330 353 181 232 257 140 218 254 230 15 53 190 17 310 324 313 311 335 330 318 320 317 314
276 271 249 245 250 238 235 244 278 291 306 283 287 279 287 235 244 280 251 216 236 331 307 233 212 246 189 225 249 173 217 5 312 265 311 334 92 323 327 326 330 324 322 314
278 268 249 240 245 234 232 253 270 272 262 282 290 307 347 226 238 271 255 228 241 273 269 140 241 257 311 329 58 250 176 181 147 247 342 277 294 316 330 323 319 316 317 318
270 261 245 237 239 216 214 263 261 256 252 284 291 305 330 259 214 242 251 228 235 235 237 255 272 270 248 119 239 79 162 198 285 277 305 299 314 320 319 316 316 323 324 323
250 249 230 227 224 227 213 223 200 0 335 263 285 288 304 287 259 193 215 224 222 221 236 234 230 281 241 146 234 176 253 317 318 334 325 316 327 320 326 328 332 329 330 328
231 227 219 221 227 236 241 253 254 278 244 246 270 276 302 32 199 179 208 187 200 227 236 231 217 208 211 248 188 176 306 321 301 341 332 320 326 332 331 332 338 336 333 334
205 198 205 212 222 231 259 270 252 248 226 249 243 265 279 337 228 197 177 197 190 201 220 238 147 212 226 223 173 178 332 345 329 329 333 335 339 334 338 337 343 336 334 338
197 191 182 214 214 208 173 172 186 205 217 233 247 231 259 343 314 169 216 180 200 199 230 173 222 249 216 178 139 41 336 329 330 341 344 349 342 343 342 340 339 341 340 341
186 184 196 174 151 168 206 231 209 188 238 226 236 212 225 236 234 277 230 192 185 211 180 218 247 261 226 178 106 4 316 317 328 337 338 340 346 347 343 344 351 352 354 354
195 166 147 157 183 207 242 211 184 214 244 209 210 209 195 222 218 228 227 218 140 192 142 223 259 224 145 144 161 308 320 326 334 336 341 344 352 357 354 353 355 359 1 4
156 159 150 160 177 225 221 212 197 220 204 227 185 185 172 215 228 253 348 45 95 128 190 228 284 151 153 157 314 324 327 337 351 349 346 343 348 5 3 358 359 0 4 9
163 165 180 209 196 228 209 213 229 218 194 335 331 173 196 219 184 174 110 67 136 223 237 233 172 174 173 334 344 339 340 351 350 346 349 355 8 7 7 6 7 3 6 11
165 188 218 220 232 250 222 245 271 263 275 290 309 261 227 274 121 36 88 183 260 217 247 213 169 166 164 352 353 350 1 1 15 30 35 23 17 10 9 13 12 10 9 13
187 220 249 242 237 228 236 244 259 283 247 185 342 304 3 357 112 126 216 151 235 238 211 157 159 160 112 50 66 71 62 55 49 43 34 24 19 12 16 19 17 18 14 15
215 238 236 248 290 257 247 255 240 223 174 208 199 185 176 116 313 282 180 204 218 174 157 159 162 143 117 104 89 78 63 54 44 39 33 27 24 17 22 22 21 24 21 19
Wind_Speed_850mb
48 51 48 47 54 65 64 27 7 20 13 5 3 4 16 22 13 26 8 1 3 6 3 4 5 7 6 14 11 7 3 7 5 15 14 17 8 6 10 5 5 6 4 11
46 50 45 42 43 58 61 34 13 23 5 6 6 10 14 23 25 18 11 10 9 5 3 4 7 3 14 11 10 13 12 2 5 16 10 10 5 5 5 3 3 8 3 10
41 47 43 39 33 40 44 18 8 12 18 13 5 7 6 18 20 18 12 7 9 8 4 5 6 3 4 15 4 14 19 7 12 11 13 9 11 11 13 11 7 6 16 25
39 42 39 35 31 32 25 14 3 6 8 6 12 5 5 22 14 16 24 5 16 10 7 5 6 3 8 10 7 7 7 10 11 13 18 17 18 23 21 16 28 15 19 21
38 37 37 33 31 27 13 10 9 10 17 22 7 4 4 16 10 4 11 10 21 14 10 12 10 8 7 11 2 4 3 5 3 9 20 15 17 11 17 14 11 19 25 23
33 33 33 31 29 24 9 7 5 6 11 10 9 5 4 13 15 13 24 28 23 26 28 33 32 27 19 15 13 8 5 7 3 9 8 16 7 1 4 8 11 9 10 7
29 29 29 29 27 20 14 7 4 2 8 5 12 15 29 29 12 19 28 40 36 30 19 23 26 23 28 19 14 16 10 7 5 7 10 5 5 9 11 20 23 8 10 13
28 27 26 26 23 17 12 5 4 5 8 10 22 12 11 22 30 26 32 52 31 18 7 3 8 5 3 1 8 13 11 9 2 3 3 12 8 7 8 14 26 7 11 23
28 27 25 24 21 15 10 5 7 10 6 6 6 16 14 7 5 9 17 45 26 5 4 4 2 5 6 4 5 12 10 2 7 4 2 9 7 6 23 10 15 5 13 18
28 26 24 23 21 15 11 8 8 11 10 21 9 6 6 7 9 6 15 21 18 15 4 4 1 4 5 2 4 2 3 3 8 6 6 14 4 13 18 2 9 32 33 43
25 24 21 22 21 15 14 11 11 13 13 33 41 37 25 15 10 4 12 16 6 7 5 0 1 3 3 4 2 4 7 4 4 4 5 13 5 3 2 7 32 42 46 53
27 25 22 22 22 16 14 16 15 17 26 36 61 67 60 58 44 19 9 10 12 7 1 3 4 4 5 4 3 5 4 9 6 13 10 4 1 14 28 25 38 45 55 66
20 22 22 22 20 18 19 17 15 18 22 43 24 19 4 14 13 18 17 12 7 5 5 4 2 4 6 1 6 3 0 4 3 7 4 9 41 7 31 43 50 63 64 72
20 21 22 24 22 19 23 22 18 21 16 9 15 6 14 19 22 23 30 40 12 24 17 3 3 4 10 4 5 5 7 3 1 10 12 35 7 49 64 67 70 71 77 78
21 19 21 23 22 18 23 21 22 24 15 9 26 54 14 35 34 21 20 33 44 30 6 1 5 6 1 3 2 5 6 6 5 7 8 10 40 62 60 62 65 72 75 80
19 19 21 21 19 18 15 10 10 9 17 9 7 16 9 4 22 28 27 31 29 16 4 6 8 7 2 1 4 3 8 4 8 10 28 36 46 46 48 62 67 71 72 79
18 19 22 23 18 22 19 9 7 8 4 6 10 10 9 3 10 4 25 33 21 10 5 6 6 6 3 2 5 7 6 11 16 11 26 24 35 54 62 60 64 65 68 73
20 22 23 24 19 22 28 30 26 22 6 8 5 6 11 6 11 10 17 12 14 10 6 5 7 4 3 6 6 8 6 16 10 23 30 37 50 58 56 59 64 68 73 81
29 30 24 17 16 15 18 16 15 17 16 6 7 4 4 14 8 13 15 13 5 8 5 5 5 3 7 9 8 4 5 13 23 28 32 44 48 50 54 59 67 67 73 83
35 28 12 9 8 12 7 1 5 11 11 11 7 8 5 6 9 10 5 10 5 5 6 5 5 5 5 10 6 3 7 14 18 28 39 46 52 56 60 61 61 63 71 77
37 15 11 11 14 16 7 7 9 9 7 11 13 24 8 6 5 2 11 5 6 4 3 3 2 5 6 9 5 3 5 13 19 19 24 33 42 51 57 60 59 64 70 75
20 15 18 16 10 8 7 6 8 8 7 10 9 15 22 10 14 10 9 4 4 4 11 2 4 2 6 11 4 8 18 21 23 19 25 29 35 45 52 54 58 63 65 76
26 8 10 10 10 9 10 9 7 6 9 9 11 6 12 12 20 13 0 1 2 14 2 5 2 8 15 6 3 14 18 19 21 22 21 27 32 42 49 55 52 59 64 72
11 12 9 8 9 9 9 6 3 8 3 14 22 8 16 15 8 3 3 4 6 5 5 6 5 17 9 3 12 17 17 19 21 26 24 29 41 48 50 47 46 55 64 70
10 10 9 14 19 12 11 22 20 25 16 15 14 13 8 1 3 2 4 4 5 5 4 5 17 18 4 6 14 18 18 20 22 26 31 36 41 51 54 48 44 48 58 67
9 11 8 16 7 14 25 25 25 23 12 6 3 4 2 2 1 3 7 6 7 6 5 15 23 14 4 8 16 20 24 28 32 33 35 36 40 53 53 50 46 44 53 61
9 11 24 28 11 11 14 19 19 13 1 4 9 10 7 2 2 3 6 8 6 12 23 26 16 8 17 25 24 20 21 24 27 35 36 35 37 49 57 61 57 51 50 52
Wind_Direction_850mb
339 342 343 344 344 348 355 359 357 354 170 37 11 20 323 309 321 340 296 203 124 169 186 248 248 241 230 230 151 115 44 132 261 251 290 275 200 221 161 250 292 273 286 273
334 336 345 348 355 356 358 345 318 13 143 75 351 329 329 331 342 326 347 13 2 2 163 263 217 306 320 150 145 166 180 128 340 336 351 353 13 180 154 85 337 236 204 269
328 334 345 349 1 358 359 359 353 342 48 72 18 8 320 314 326 322 350 326 7 356 269 221 266 262 358 353 181 153 136 142 173 205 226 203 282 261 243 172 214 241 230 273
319 329 340 348 358 359 3 9 354 7 317 325 331 278 276 292 306 336 335 8 6 333 287 284 239 18 344 358 70 102 117 200 196 239 250 250 265 277 286 217 237 227 262 271
309 320 329 344 350 6 9 1 354 338 295 295 314 303 318 285 314 310 297 331 330 298 248 229 245 184 189 234 9 83 34 250 225 270 264 267 283 299 309 19 324 250 257 274
300 309 321 332 340 357 12 336 279 290 288 308 300 262 265 314 323 283 247 306 309 297 269 259 239 227 218 217 180 173 178 153 113 269 310 306 302 104 289 270 248 260 254 253
293 298 309 320 329 341 346 325 320 289 283 306 288 308 302 293 301 279 284 282 281 263 269 282 270 260 244 227 233 178 151 133 151 275 347 258 237 187 255 292 297 268 302 321
298 294 300 306 316 325 328 318 233 235 284 270 288 310 338 321 299 286 267 282 310 313 299 354 339 333 58 159 210 188 182 140 153 202 211 282 231 232 281 311 297 167 314 315
292 292 288 292 302 307 299 271 246 252 290 255 276 309 315 293 284 299 287 317 340 323 79 70 289 249 188 289 94 55 102 323 135 143 215 253 234 244 323 324 279 105 317 295
289 287 279 279 289 291 273 280 289 252 250 280 275 238 259 261 278 265 297 325 324 4 43 48 184 271 291 132 164 41 335 319 169 169 230 280 225 305 324 237 258 326 326 309
284 288 276 270 276 278 258 275 296 283 253 276 268 266 240 224 216 250 312 328 4 347 40 267 319 313 340 23 211 213 177 159 208 172 218 274 42 13 146 262 327 320 312 304
281 278 271 260 265 255 239 270 292 307 259 268 285 278 258 258 269 253 259 291 314 271 46 338 341 326 16 137 270 47 163 201 200 181 225 215 189 283 298 318 312 305 306 303
275 270 258 252 256 243 237 262 288 304 287 301 282 286 245 243 267 277 230 264 234 330 353 181 232 257 140 218 254 230 15 53 190 17 310 324 313 311 335 330 318 320 317 314
276 271 249 245 250 238 235 244 278 291 306 283 287 279 287 235 244 280 251 216 236 331 307 233 212 246 189 225 249 173 217 5 312 265 311 334 92 323 327 326 330 324 322 314
278 268 249 240 245 234 232 253 270 272 262 282 290 307 347 226 238 271 255 228 241 273 269 140 241 257 311 329 58 250 176 181 147 247 342 277 294 316 330 323 319 316 317 318
270 261 245 237 239 216 214 263 261 256 252 284 291 305 330 259 214 242 251 228 235 235 237 255 272 270 248 119 239 79 162 198 285 277 305 299 314 320 319 316 316 323 324 323
250 249 230 227 224 227 213 223 200 0 335 263 285 288 304 287 259 193 215 224 222 221 236 234 230 281 241 146 234 176 253 317 318 334 325 316 327 320 326 328 332 329 330 328
231 227 219 221 227 236 241 253 254 278 244 246 270 276 302 32 199 179 208 187 200 227 236 231 217 208 211 248 188 176 306 321 301 341 332 320 326 332 331 332 338 336 333 334
205 198 205 212 222 231 259 270 252 248 226 249 243 265 279 337 228 197 177 197 190 201 220 238 147 212 226 223 173 178 332 345 329 329 333 335 339 334 338 337 343 336 334 338
197 191 182 214 214 208 173 172 186 205 217 233 247 231 259 343 314 169 216 180 200 199 230 173 222 249 216 178 139 41 336 329 330 341 344 349 342 343 342 340 339 341 340 341
186 184 196 174 151 168 206 231 209 188 238 226 236 212 225 236 234 277 230 192 185 211 180 218 247 261 226 178 106 4 316 317 328 337 338 340 346 347 343 344 351 352 354 354
195 166 147 157 183 207 242 211 184 214 244 209 210 209 195 222 218 228 227 218 140 192 142 223 259 224 145 144 161 308 320 326 334 336 341 344 352 357 354 353 355 359 1 4
156 159 150 160 177 225 221 212 197 220 204 227 185 185 172 215 228 253 348 45 95 128 190 228 284 151 153 157 314 324 327 337 351 349 346 343 348 5 3 358 359 0 4 9
163 165 180 209 196 228 209 213 229 218 194 335 331 173 196 219 184 174 110 67 136 223 237 233 172 174 173 334 344 339 340 351 350 346 349 355 8 7 7 6 7 3 6 11
165 188 218 220 232 250 222 245 271 263 275 290 309 261 227 274 121 36 88 183 260 217 247 213 169 166 164 352 353 350 1 1 15 30 35 23 17 10 9 13 12 10 9 13
187 220 249 242 237 228 236 244 259 283 247 185 342 304 3 357 112 126 216 151 235 238 211 157 159 160 112 50 66 71 62 55 49 43 34 24 19 12 16 19 17 18 14 15
215 238 236 248 290 257 247 255 240 223 174 208 199 185 176 116 313 282 180 204 218 174 157 159 162 143 117 104 89 78 63 54 44 39 33 27 24 17 22 22 21 24 21 19